Flag for Switzerland Weather past 2 weeks in Altdorf, Uri, Switzerland

Now
56 °F

Cool.


Feels Like: 56 °F
Forecast: 57 / 79 °F
Wind: 1 mph from Southwest

Location: Altdorf

Current Time: Aug 28, 2014 at 2:05:42 AM

Latest Report: Aug 28, 2014 at 1:00 AM


Visibility: N/A

Pressure: 30.07 "Hg

Humidity: 96%

Dew point: 54 °F

Location of AltdorfLocation

Historic Weather in Altdorf — Graph

°F

Altdorf temperature yesterday

Maximum temperature yesterday: 67 °F (at 4:00 PM)
Minimum temperature yesterday: 57 °F (at 6:00 AM)
Average temperature yesterday: 61 °F

Past Weeks' High & Low Weather Summary

 TemperatureHumidityPressure
High72 °F (Aug 18, 2:00 PM)99% (Aug 27, 12:00 AM)30.22 "Hg (Aug 27, 12:00 AM)
Low46 °F (Aug 17, 6:00 AM)47% (Aug 24, 3:00 PM)29.64 "Hg (Aug 13, 10:00 AM)
Average59 °F79%29.99 "Hg
* Reported Midnight between Aug 12 and Aug 13 — Midnight between Aug 27 and Aug 28, Altdorf, Weather by CustomWeather, © 2014

Note: Actual official high and low records may vary slightly from our data, if they occured in-between our weather recording intervals... More about our weather records

Advertising

Altdorf weather history for previous 24 hours

 ConditionsComfort  
Time TempWeatherWind HumidityBarometerVisibility
12:00 AM
Aug 28
56 °FCool.1 mph95%30.07 "HgN/A
11:00 PM
Aug 27
58 °FCool.No wind91%30.06 "HgN/A
10:00 PM57 °FCool.2 mph93%30.06 "HgN/A
9:00 PM60 °FCool.1 mph92%30.04 "HgN/A
8:00 PM62 °FOvercast.2 mph89%30.02 "Hg9 mi
7:00 PM64 °FMild.3 mph80%30.01 "HgN/A
6:00 PM66 °FMild.2 mph76%30.00 "HgN/A
5:00 PM66 °FPartly sunny.3 mph76%29.99 "Hg11 mi
4:00 PM67 °FMild.2 mph65%29.99 "HgN/A
3:00 PM67 °FMild.2 mph68%29.99 "HgN/A
2:00 PM66 °FPartly sunny.2 mph72%29.99 "Hg11 mi
1:00 PM66 °FMild.1 mph72%29.99 "HgN/A
12:00 PM64 °FMild.6 mph78%29.99 "HgN/A
10:00 AM61 °FCool.3 mph90%29.98 "HgN/A
9:00 AM59 °FCool.3 mph97%29.97 "HgN/A
8:00 AM58 °FRain. Overcast.2 mph98%29.96 "Hg3 mi
7:00 AM57 °FCool.1 mph98%29.94 "HgN/A
6:00 AM57 °FCool.3 mph96%29.93 "HgN/A
5:00 AM59 °FRain. Overcast.2 mph88%29.92 "Hg9 mi
4:00 AM60 °FCool.5 mph89%29.90 "HgN/A
3:00 AM59 °FCool.3 mph97%29.90 "HgN/A
2:00 AM58 °FOvercast.3 mph99%29.88 "Hg11 mi
Weather by CustomWeather, © 2014

See weather overviewHow to use our weather pages